| time (UTC) | temp F | wind direction | speed MPH | gust MPH | rain 1hr in | rain 24hr in | rain mn in | humidity % | barometer mb |
| 20260904164809 | 73 | 294 | 1.0 | 2.0 | 0.00 | 0.53 | 0.53 | 78 | 1015.4 |
| 20260904164304 | 73 | 229 | 4.0 | 5.0 | 0.00 | 0.53 | 0.53 | 79 | 1015.5 |
| 20260904163800 | 73 | 31 | 1.0 | 1.0 | 0.00 | 0.53 | 0.53 | 79 | 1015.4 |
| 20260904163254 | 73 | 184 | 2.0 | 2.0 | 0.00 | 0.53 | 0.53 | 79 | 1015.5 |
| 20260904162754 | 73 | 266 | 0.0 | 1.0 | 0.00 | 0.53 | 0.53 | 78 | 1015.6 |
| 20260904162249 | 74 | 82 | 3.0 | 3.0 | 0.00 | 0.53 | 0.53 | 78 | 1015.4 |
| 20260904161745 | 73 | 167 | 2.0 | 2.0 | 0.00 | 0.53 | 0.53 | 79 | 1015.7 |
| 20260904161244 | 72 | 67 | 2.0 | 2.0 | 0.00 | 0.53 | 0.53 | 80 | 1015.7 |
| 20260904160740 | 72 | 54 | 1.0 | 1.0 | 0.00 | 0.53 | 0.53 | 82 | 1015.7 |
| 20260904160236 | 73 | 244 | 4.0 | 5.0 | 0.00 | 0.53 | 0.53 | 79 | 1015.7 |
| 20260904155735 | 73 | 246 | 3.0 | 3.0 | 0.00 | 0.53 | 0.53 | 78 | 1016.0 |
| 20260904155235 | 72 | 260 | 2.0 | 2.0 | 0.00 | 0.53 | 0.53 | 79 | 1015.9 |
| 20260904154733 | 73 | 170 | 1.0 | 1.0 | 0.00 | 0.53 | 0.53 | 79 | 1015.8 |
| 20260904154228 | 75 | 204 | 2.0 | 2.0 | 0.00 | 0.53 | 0.53 | 75 | 1015.8 |
| 20260904153724 | 73 | 146 | 2.0 | 2.0 | 0.00 | 0.53 | 0.53 | 76 | 1015.8 |
| 20260904153219 | 74 | 81 | 3.0 | 5.0 | 0.00 | 0.53 | 0.53 | 74 | 1015.8 |
| 20260904152715 | 73 | 203 | 3.0 | 3.0 | 0.00 | 0.53 | 0.53 | 76 | 1015.8 |
| 20260904152210 | 72 | 29 | 2.0 | 2.0 | 0.00 | 0.53 | 0.53 | 75 | 1015.7 |
| 20260904151705 | 74 | 105 | 1.0 | 2.0 | 0.00 | 0.53 | 0.53 | 74 | 1015.6 |
| 20260904151204 | 73 | 335 | 2.0 | 2.0 | 0.00 | 0.53 | 0.53 | 74 | 1016.1 |
| 20260904150700 | 74 | 238 | 2.0 | 2.0 | 0.00 | 0.53 | 0.53 | 72 | 1016.1 |
| 20260904150155 | 73 | 49 | 1.0 | 1.0 | 0.00 | 0.53 | 0.53 | 72 | 1016.0 |
| 20260904145654 | 73 | 22 | 5.0 | 7.0 | 0.00 | 0.53 | 0.53 | 71 | 1015.9 |
| 20260904145149 | 73 | 26 | 0.0 | 0.0 | 0.00 | 0.53 | 0.53 | 72 | 1015.9 |
| 20260904144644 | 73 | 264 | 4.0 | 5.0 | 0.00 | 0.53 | 0.53 | 71 | 1015.8 |
| 20260904144140 | 72 | 11 | 1.0 | 1.0 | 0.00 | 0.53 | 0.53 | 75 | 1015.9 |
| 20260904143636 | 72 | 356 | 2.0 | 3.0 | 0.00 | 0.53 | 0.53 | 73 | 1016.0 |
| 20260904143132 | 72 | 227 | 2.0 | 3.0 | 0.00 | 0.53 | 0.53 | 73 | 1015.9 |
| 20260904142628 | 73 | 326 | 1.0 | 1.0 | 0.00 | 0.53 | 0.53 | 76 | 1015.9 |
| 20260904142124 | 72 | 331 | 3.0 | 5.0 | 0.00 | 0.53 | 0.53 | 75 | 1015.8 |
| 20260904141619 | 73 | 56 | 1.0 | 2.0 | 0.00 | 0.53 | 0.53 | 78 | 1015.7 |
| 20260904141114 | 72 | 34 | 0.0 | 1.0 | 0.00 | 0.53 | 0.53 | 81 | 1015.7 |
| 20260904140609 | 72 | 92 | 1.0 | 1.0 | 0.00 | 0.53 | 0.53 | 80 | 1015.9 |
| 20260904140104 | 72 | 22 | 1.0 | 2.0 | 0.00 | 0.53 | 0.53 | 79 | 1015.7 |
| 20260904135603 | 72 | 17 | 0.0 | 1.0 | 0.00 | 0.53 | 0.53 | 79 | 1015.6 |
| 20260904135059 | 71 | 12 | 0.0 | 1.0 | 0.00 | 0.53 | 0.53 | 81 | 1015.5 |
| 20260904134555 | 71 | 49 | 1.0 | 1.0 | 0.00 | 0.53 | 0.53 | 84 | 1015.5 |
| 20260904134048 | 71 | 42 | 0.0 | 1.0 | 0.00 | 0.53 | 0.53 | 85 | 1015.6 |
| 20260904133542 | 71 | 14 | 0.0 | 1.0 | 0.00 | 0.53 | 0.53 | 89 | 1015.6 |
| 20260904133034 | 71 | 26 | 0.0 | 0.0 | 0.00 | 0.53 | 0.53 | 90 | 1015.5 |
| 20260904132533 | 68 | 334 | 1.0 | 1.0 | 0.00 | 0.53 | 0.53 | 91 | 1015.7 |
| 20260904132028 | 67 | 70 | 1.0 | 1.0 | 0.00 | 0.53 | 0.53 | 95 | 1015.6 |
| 20260904131528 | 67 | 243 | 2.0 | 2.0 | 0.00 | 0.53 | 0.53 | 98 | 1015.4 |
| 20260904131023 | 65 | 347 | 1.0 | 1.0 | 0.00 | 0.53 | 0.53 | 99 | 1015.5 |
| 20260904130523 | 64 | 101 | 2.0 | 2.0 | 0.00 | 0.53 | 0.53 | 99 | 1015.4 |
| 20260904130017 | 64 | 79 | 3.0 | 3.0 | 0.00 | 0.53 | 0.53 | 99 | 1015.6 |
| 20260904125514 | 64 | 181 | 2.0 | 2.0 | 0.00 | 0.53 | 0.53 | 99 | 1015.9 |
| 20260904125009 | 64 | 243 | 1.0 | 2.0 | 0.00 | 0.53 | 0.53 | 99 | 1015.5 |
| 20260904124504 | 64 | 225 | 2.0 | 2.0 | 0.00 | 0.53 | 0.53 | 99 | 1015.5 |
| 20260904124000 | 64 | 226 | 2.0 | 2.0 | 0.00 | 0.53 | 0.53 | 99 | 1015.5 |
| 20260904123454 | 65 | 28 | 2.0 | 2.0 | 0.00 | 0.53 | 0.53 | 99 | 1015.5 |
| 20260904122949 | 66 | 10 | 0.0 | 1.0 | 0.00 | 0.53 | 0.53 | 99 | 1015.5 |
| 20260904122449 | 66 | 62 | 1.0 | 1.0 | 0.00 | 0.53 | 0.53 | 99 | 1015.6 |
| 20260904121944 | 66 | 144 | 1.0 | 2.0 | 0.00 | 0.53 | 0.53 | 99 | 1015.3 |
| 20260904121440 | 65 | 41 | 1.0 | 2.0 | 0.00 | 0.53 | 0.53 | 99 | 1015.4 |
| 20260904120936 | 65 | 222 | 1.0 | 2.0 | 0.00 | 0.53 | 0.53 | 99 | 1015.4 |
| 20260904120432 | 65 | 226 | 2.0 | 2.0 | 0.00 | 0.53 | 0.53 | 99 | 1015.5 |
| 20260904115927 | 65 | 197 | 2.0 | 2.0 | 0.00 | 0.53 | 0.53 | 99 | 1015.5 |
| 20260904115422 | 65 | 354 | 1.0 | 1.0 | 0.00 | 0.53 | 0.53 | 99 | 1015.5 |
| 20260904114921 | 65 | 36 | 1.0 | 1.0 | 0.00 | 0.53 | 0.53 | 99 | 1015.6 |
| 20260904114416 | 65 | 359 | 0.0 | 0.0 | 0.00 | 0.53 | 0.53 | 99 | 1015.6 |
| 20260904113912 | 65 | 19 | 0.0 | 0.0 | 0.00 | 0.53 | 0.53 | 99 | 1015.5 |
| 20260904113411 | 65 | 50 | 0.0 | 1.0 | 0.00 | 0.53 | 0.53 | 99 | 1015.3 |
| 20260904112910 | 64 | 35 | 0.0 | 0.0 | 0.00 | 0.53 | 0.53 | 99 | 1015.5 |
| 20260904112406 | 64 | 351 | 0.0 | 1.0 | 0.00 | 0.53 | 0.53 | 99 | 1015.5 |
| 20260904111902 | 64 | 21 | 0.0 | 0.0 | 0.00 | 0.53 | 0.53 | 99 | 1015.4 |
| 20260904111357 | 64 | 22 | 0.0 | 0.0 | 0.00 | 0.53 | 0.53 | 99 | 1015.3 |
| 20260904110853 | 64 | 22 | 0.0 | 0.0 | 0.00 | 0.53 | 0.53 | 99 | 1015.1 |
| 20260904110352 | 63 | 13 | 0.0 | 0.0 | 0.00 | 0.53 | 0.53 | 99 | 1015.0 |
| 20260904105847 | 64 | 11 | 0.0 | 0.0 | 0.00 | 0.53 | 0.53 | 99 | 1015.0 |
| 20260904105342 | 64 | 12 | 0.0 | 0.0 | 0.00 | 0.53 | 0.53 | 99 | 1015.0 |
| 20260904104837 | 64 | 28 | 0.0 | 0.0 | 0.00 | 0.53 | 0.53 | 99 | 1014.8 |
| 20260904104332 | 64 | 31 | 0.0 | 0.0 | 0.00 | 0.53 | 0.53 | 99 | 1015.2 |
| 20260904103830 | 64 | 14 | 0.0 | 0.0 | 0.00 | 0.53 | 0.53 | 99 | 1015.1 |
| 20260904103329 | 64 | 13 | 0.0 | 0.0 | 0.00 | 0.53 | 0.53 | 99 | 1014.8 |
| 20260904102825 | 64 | 11 | 0.0 | 0.0 | 0.00 | 0.53 | 0.53 | 99 | 1015.0 |
| 20260904102321 | 64 | 10 | 0.0 | 0.0 | 0.00 | 0.53 | 0.53 | 99 | 1014.5 |
| 20260904101816 | 64 | 18 | 0.0 | 0.0 | 0.00 | 0.53 | 0.53 | 99 | 1014.7 |
| 20260904101313 | 65 | 18 | 0.0 | 0.0 | 0.00 | 0.53 | 0.53 | 99 | 1014.8 |
| 20260904100808 | 65 | 15 | 0.0 | 0.0 | 0.00 | 0.53 | 0.53 | 99 | 1014.6 |
| 20260904100303 | 65 | 22 | 0.0 | 0.0 | 0.00 | 0.53 | 0.53 | 99 | 1014.7 |
| 20260904095758 | 65 | 16 | 0.0 | 0.0 | 0.00 | 0.53 | 0.53 | 99 | 1014.6 |
| 20260904095253 | 66 | 23 | 0.0 | 0.0 | 0.00 | 0.53 | 0.53 | 99 | 1014.8 |
| 20260904094748 | 66 | 28 | 0.0 | 1.0 | 0.00 | 0.53 | 0.53 | 99 | 1014.7 |
| 20260904094243 | 66 | 21 | 0.0 | 0.0 | 0.00 | 0.53 | 0.53 | 99 | 1014.6 |
| 20260904093740 | 66 | 352 | 1.0 | 2.0 | 0.00 | 0.53 | 0.53 | 99 | 1014.8 |
| 20260904093239 | 66 | 63 | 1.0 | 1.0 | 0.00 | 0.53 | 0.53 | 99 | 1014.8 |
| 20260904092735 | 66 | 21 | 0.0 | 0.0 | 0.00 | 0.53 | 0.53 | 99 | 1014.6 |
| 20260904092231 | 66 | 25 | 0.0 | 0.0 | 0.00 | 0.53 | 0.53 | 99 | 1014.6 |
| 20260904091726 | 66 | 14 | 0.0 | 0.0 | 0.00 | 0.53 | 0.53 | 99 | 1014.7 |
| 20260904091221 | 66 | 18 | 0.0 | 0.0 | 0.00 | 0.53 | 0.53 | 99 | 1014.8 |
| 20260904090717 | 66 | 19 | 0.0 | 0.0 | 0.00 | 0.53 | 0.53 | 99 | 1014.6 |
| 20260904090213 | 66 | 42 | 0.0 | 0.0 | 0.00 | 0.53 | 0.53 | 99 | 1014.5 |
| 20260904085708 | 66 | 19 | 0.0 | 0.0 | 0.00 | 0.53 | 0.53 | 99 | 1014.4 |
| 20260904085207 | 66 | 14 | 0.0 | 0.0 | 0.00 | 0.53 | 0.53 | 99 | 1014.4 |
| 20260904084657 | 66 | 18 | 0.0 | 0.0 | 0.00 | 0.53 | 0.53 | 99 | 1014.6 |
| 20260904084153 | 66 | 14 | 0.0 | 1.0 | 0.00 | 0.53 | 0.53 | 99 | 1014.4 |
| 20260904083649 | 66 | 17 | 0.0 | 0.0 | 0.00 | 0.53 | 0.53 | 99 | 1014.5 |
| 20260904083146 | 65 | 17 | 0.0 | 0.0 | 0.00 | 0.53 | 0.53 | 99 | 1014.5 |
| 20260904082640 | 65 | 14 | 0.0 | 0.0 | 0.00 | 0.53 | 0.53 | 99 | 1014.5 |
| 20260904082136 | 66 | 15 | 0.0 | 0.0 | 0.00 | 0.53 | 0.53 | 99 | 1014.3 |
| 20260904081631 | 66 | 18 | 0.0 | 0.0 | 0.00 | 0.53 | 0.53 | 99 | 1014.4 |
| 20260904081126 | 65 | 17 | 0.0 | 0.0 | 0.00 | 0.53 | 0.53 | 99 | 1014.2 |
| 20260904080621 | 65 | 9 | 0.0 | 0.0 | 0.00 | 0.53 | 0.53 | 99 | 1014.1 |
| 20260904080117 | 65 | 356 | 0.0 | 0.0 | 0.00 | 0.53 | 0.53 | 99 | 1014.0 |
| 20260904075613 | 65 | 18 | 0.0 | 0.0 | 0.00 | 0.53 | 0.53 | 99 | 1014.0 |
| 20260904075113 | 65 | 14 | 0.0 | 0.0 | 0.00 | 0.53 | 0.53 | 99 | 1013.9 |
| 20260904074607 | 65 | 20 | 0.0 | 0.0 | 0.00 | 0.53 | 0.53 | 99 | 1013.8 |
| 20260904074102 | 65 | 8 | 0.0 | 0.0 | 0.00 | 0.53 | 0.53 | 99 | 1013.8 |
| 20260904073556 | 65 | 14 | 0.0 | 0.0 | 0.00 | 0.53 | 0.53 | 99 | 1014.1 |
| 20260904073053 | 65 | 17 | 0.0 | 0.0 | 0.00 | 0.53 | 0.53 | 99 | 1014.1 |
| 20260904072548 | 65 | 17 | 0.0 | 0.0 | 0.00 | 0.53 | 0.53 | 99 | 1014.0 |
| 20260904072043 | 65 | 14 | 0.0 | 0.0 | 0.00 | 0.53 | 0.53 | 99 | 1014.1 |
| 20260904071539 | 65 | 18 | 0.0 | 0.0 | 0.00 | 0.53 | 0.53 | 99 | 1013.8 |
| 20260904071034 | 65 | 14 | 0.0 | 0.0 | 0.00 | 0.53 | 0.53 | 99 | 1013.9 |
| 20260904070532 | 65 | 15 | 0.0 | 0.0 | 0.00 | 0.53 | 0.53 | 99 | 1013.9 |
| 20260904070028 | 65 | 17 | 0.0 | 0.0 | 0.00 | 0.53 | 0.53 | 99 | 1014.0 |
| 20260904065522 | 65 | 19 | 0.0 | 0.0 | 0.00 | 0.53 | 0.53 | 99 | 1014.0 |
| 20260904065019 | 65 | 358 | 0.0 | 0.0 | 0.00 | 0.53 | 0.53 | 99 | 1013.8 |
| 20260904064515 | 66 | 10 | 0.0 | 0.0 | 0.00 | 0.53 | 0.53 | 99 | 1013.9 |
| 20260904064009 | 66 | 18 | 0.0 | 0.0 | 0.00 | 0.53 | 0.53 | 99 | 1013.9 |
| 20260904063506 | 66 | 20 | 0.0 | 0.0 | 0.00 | 0.53 | 0.53 | 99 | 1014.1 |
| 20260904063000 | 66 | 14 | 0.0 | 0.0 | 0.00 | 0.53 | 0.53 | 99 | 1014.0 |
| 20260904062457 | 66 | 10 | 0.0 | 0.0 | 0.00 | 0.53 | 0.53 | 99 | 1013.9 |
| 20260904061952 | 66 | 7 | 0.0 | 0.0 | 0.00 | 0.53 | 0.53 | 99 | 1014.1 |
| 20260904061448 | 66 | 18 | 0.0 | 0.0 | 0.00 | 0.53 | 0.53 | 99 | 1014.0 |
| 20260904060944 | 66 | 18 | 0.0 | 0.0 | 0.00 | 0.53 | 0.53 | 99 | 1014.1 |
| 20260904060440 | 66 | 16 | 0.0 | 0.0 | 0.00 | 0.53 | 0.53 | 99 | 1013.9 |
| 20260904055935 | 66 | 15 | 0.0 | 0.0 | 0.00 | 0.53 | 0.53 | 99 | 1014.2 |
| 20260904055431 | 66 | 17 | 0.0 | 1.0 | 0.00 | 0.53 | 0.53 | 99 | 1014.3 |
| 20260904054926 | 66 | 18 | 0.0 | 0.0 | 0.00 | 0.53 | 0.53 | 99 | 1014.4 |
| 20260904054421 | 66 | 24 | 0.0 | 1.0 | 0.00 | 0.53 | 0.53 | 99 | 1014.4 |
| 20260904053917 | 66 | 13 | 1.0 | 1.0 | 0.00 | 0.53 | 0.53 | 99 | 1014.5 |
| 20260904053416 | 66 | 5 | 0.0 | 0.0 | 0.00 | 0.53 | 0.53 | 99 | 1014.7 |
| 20260904052912 | 67 | 21 | 0.0 | 0.0 | 0.07 | 0.53 | 0.53 | 99 | 1015.1 |
| 20260904052409 | 67 | 31 | 0.0 | 1.0 | 0.07 | 0.53 | 0.53 | 99 | 1014.8 |
| 20260904051905 | 67 | 32 | 0.0 | 0.0 | 0.24 | 0.52 | 0.52 | 99 | 1014.5 |
| 20260904051400 | 67 | 42 | 1.0 | 1.0 | 1.21 | 0.52 | 0.52 | 99 | 1014.8 |
| 20260904050854 | 67 | 0 | 0.0 | 0.0 | 1.49 | 0.47 | 0.47 | 99 | 1014.8 |
| 20260904050351 | 67 | 354 | 2.0 | 3.0 | 0.97 | 0.29 | 0.29 | 99 | 1015.0 |
| 20260904045851 | 68 | 25 | 2.0 | 3.0 | 0.78 | 0.22 | 0.22 | 99 | 1015.1 |
| 20260904045346 | 66 | 11 | 0.0 | 1.0 | 0.17 | 0.12 | 0.12 | 99 | 1014.7 |
| 20260904044840 | 66 | 54 | 0.0 | 1.0 | 0.00 | 0.09 | 0.09 | 99 | 1014.4 |
| 20260904044337 | 66 | 13 | 1.0 | 1.0 | 0.00 | 0.09 | 0.09 | 99 | 1014.4 |
| 20260904043833 | 66 | 16 | 0.0 | 0.0 | 0.00 | 0.09 | 0.09 | 99 | 1014.2 |
| 20260904043330 | 66 | 11 | 0.0 | 1.0 | 0.00 | 0.09 | 0.09 | 99 | 1014.3 |
| 20260904042829 | 66 | 356 | 1.0 | 1.0 | 0.50 | 0.09 | 0.09 | 99 | 1014.8 |
| 20260904042325 | 66 | 34 | 0.0 | 0.0 | 0.42 | 0.07 | 0.07 | 99 | 1014.4 |
| 20260904041820 | 66 | 5 | 0.0 | 0.0 | 0.00 | 0.00 | 0.00 | 99 | 1014.6 |
| 20260904041317 | 66 | 14 | 0.0 | 0.0 | 0.00 | 0.00 | 0.00 | 99 | 1014.5 |
| 20260904040812 | 66 | 16 | 0.0 | 0.0 | 0.00 | 0.00 | 0.00 | 99 | 1014.3 |
| 20260904040307 | 66 | 10 | 0.0 | 0.0 | 0.00 | 0.00 | 0.00 | 99 | 1014.4 |
| 20260904035803 | 66 | 16 | 0.0 | 0.0 | 0.00 | 0.79 | 0.79 | 99 | 1014.4 |
| 20260904035259 | 66 | 9 | 0.0 | 0.0 | 0.00 | 0.79 | 0.79 | 99 | 1014.5 |
| 20260904034758 | 66 | 15 | 0.0 | 0.0 | 0.00 | 0.79 | 0.79 | 99 | 1014.5 |
| 20260904034254 | 66 | 14 | 0.0 | 0.0 | 0.00 | 0.79 | 0.79 | 99 | 1014.5 |
| 20260904033749 | 66 | 14 | 0.0 | 0.0 | 0.00 | 0.79 | 0.79 | 99 | 1014.6 |
| 20260904033246 | 66 | 21 | 0.0 | 0.0 | 0.00 | 0.79 | 0.79 | 99 | 1014.8 |
| 20260904032742 | 66 | 14 | 0.0 | 0.0 | 0.00 | 0.79 | 0.79 | 99 | 1014.7 |
| 20260904032240 | 66 | 14 | 0.0 | 0.0 | 0.00 | 0.79 | 0.79 | 99 | 1014.8 |
| 20260904031735 | 66 | 22 | 0.0 | 0.0 | 0.00 | 0.79 | 0.79 | 99 | 1014.8 |
| 20260904031230 | 66 | 16 | 0.0 | 0.0 | 0.00 | 0.79 | 0.79 | 99 | 1014.7 |
| 20260904030726 | 66 | 18 | 0.0 | 0.0 | 0.00 | 0.79 | 0.79 | 99 | 1014.8 |
| 20260904030221 | 66 | 19 | 0.0 | 0.0 | 0.00 | 0.79 | 0.79 | 99 | 1014.8 |
| 20260904025712 | 66 | 14 | 0.0 | 0.0 | 0.00 | 0.79 | 0.79 | 99 | 1015.0 |
| 20260904025207 | 66 | 12 | 0.0 | 0.0 | 0.00 | 0.79 | 0.79 | 99 | 1014.8 |
| 20260904024703 | 66 | 21 | 0.0 | 0.0 | 0.00 | 0.79 | 0.79 | 99 | 1014.8 |
| 20260904024157 | 66 | 10 | 0.0 | 0.0 | 0.00 | 0.79 | 0.79 | 99 | 1015.0 |
| 20260904023648 | 66 | 22 | 0.0 | 1.0 | 0.00 | 0.79 | 0.79 | 99 | 1015.1 |
| 20260904023143 | 66 | 12 | 0.0 | 1.0 | 0.00 | 0.79 | 0.79 | 99 | 1015.2 |
| 20260904022642 | 66 | 17 | 0.0 | 0.0 | 0.00 | 0.79 | 0.79 | 99 | 1015.3 |
| 20260904022139 | 66 | 24 | 0.0 | 0.0 | 0.00 | 0.79 | 0.79 | 99 | 1015.5 |
| 20260904021635 | 66 | 23 | 0.0 | 0.0 | 0.12 | 0.79 | 0.79 | 99 | 1015.4 |
| 20260904021130 | 66 | 52 | 1.0 | 2.0 | 0.19 | 0.79 | 0.79 | 99 | 1015.5 |
| 20260904020626 | 66 | 14 | 0.0 | 0.0 | 0.07 | 0.77 | 0.77 | 99 | 1015.7 |
| 20260904020115 | 66 | 7 | 0.0 | 0.0 | 0.00 | 0.76 | 0.76 | 99 | 1015.6 |
| 20260904015609 | 66 | 3 | 0.0 | 0.0 | 0.00 | 0.76 | 0.76 | 99 | 1015.4 |
| 20260904015108 | 66 | 11 | 0.0 | 0.0 | 0.00 | 0.76 | 0.76 | 99 | 1015.7 |
| 20260904014602 | 66 | 21 | 0.0 | 0.0 | 0.00 | 0.76 | 0.76 | 99 | 1015.6 |
| 20260904014058 | 66 | 31 | 0.0 | 0.0 | 0.00 | 0.76 | 0.76 | 99 | 1015.7 |
| 20260904013554 | 66 | 10 | 0.0 | 0.0 | 0.00 | 0.76 | 0.76 | 99 | 1015.7 |
| 20260904013051 | 66 | 11 | 0.0 | 0.0 | 0.00 | 0.76 | 0.76 | 99 | 1016.0 |
| 20260904012550 | 66 | 15 | 0.0 | 0.0 | 0.00 | 0.76 | 0.76 | 99 | 1016.0 |
| 20260904012049 | 66 | 2 | 0.0 | 1.0 | 0.00 | 0.76 | 0.76 | 99 | 1016.0 |
| 20260904011544 | 66 | 45 | 0.0 | 0.0 | 0.00 | 0.76 | 0.76 | 99 | 1016.1 |
| 20260904011039 | 66 | 27 | 0.0 | 0.0 | 0.00 | 0.76 | 0.76 | 99 | 1015.9 |
| 20260904010535 | 66 | 19 | 0.0 | 0.0 | 0.00 | 0.76 | 0.76 | 99 | 1015.9 |
| 20260904010032 | 66 | 15 | 0.0 | 0.0 | 0.00 | 0.76 | 0.76 | 99 | 1016.1 |
| 20260904005532 | 66 | 22 | 0.0 | 0.0 | 0.00 | 0.76 | 0.76 | 99 | 1016.1 |
| 20260904005027 | 66 | 36 | 0.0 | 0.0 | 0.00 | 0.76 | 0.76 | 99 | 1015.9 |
| 20260904004522 | 66 | 27 | 0.0 | 0.0 | 0.17 | 0.76 | 0.76 | 99 | 1015.9 |
| 20260904004017 | 65 | 66 | 1.0 | 1.0 | 1.37 | 0.76 | 0.76 | 99 | 1015.9 |
| 20260904003513 | 66 | 5 | 1.0 | 1.0 | 2.76 | 0.72 | 0.72 | 99 | 1016.0 |
| 20260904003008 | 67 | 250 | 5.0 | 7.0 | 1.56 | 0.51 | 0.51 | 99 | 1017.0 |
| 20260904002504 | 71 | 217 | 5.0 | 6.0 | 0.42 | 0.25 | 0.25 | 99 | 1016.7 |
| 20260904002003 | 71 | 24 | 0.0 | 0.0 | 0.50 | 0.25 | 0.25 | 99 | 1015.6 |
| 20260904001459 | 71 | 4 | 0.0 | 0.0 | 0.00 | 0.17 | 0.17 | 99 | 1015.6 |
| 20260904000959 | 71 | 8 | 0.0 | 1.0 | 0.00 | 0.17 | 0.17 | 99 | 1015.2 |
| 20260904000458 | 71 | 340 | 0.0 | 0.0 | 0.00 | 0.17 | 0.17 | 99 | 1015.0 |
| 20260903235954 | 71 | 28 | 0.0 | 0.0 | 0.00 | 0.17 | 0.17 | 99 | 1015.2 |
| 20260903235450 | 71 | 16 | 0.0 | 0.0 | 0.00 | 0.17 | 0.17 | 99 | 1015.3 |
| 20260903234949 | 71 | 18 | 0.0 | 0.0 | 0.00 | 0.17 | 0.17 | 99 | 1015.3 |
| 20260903234445 | 71 | 20 | 0.0 | 0.0 | 0.00 | 0.17 | 0.17 | 99 | 1015.3 |
| 20260903233941 | 72 | 18 | 1.0 | 1.0 | 0.00 | 0.17 | 0.17 | 99 | 1015.3 |
| 20260903233437 | 72 | 15 | 0.0 | 0.0 | 0.00 | 0.17 | 0.17 | 99 | 1015.4 |
| 20260903232932 | 72 | 18 | 1.0 | 1.0 | 0.00 | 0.17 | 0.17 | 99 | 1015.3 |
| 20260903232426 | 72 | 29 | 0.0 | 0.0 | 0.00 | 0.17 | 0.17 | 99 | 1015.3 |
| 20260903231926 | 73 | 19 | 0.0 | 0.0 | 0.00 | 0.17 | 0.17 | 99 | 1015.5 |
| 20260903231422 | 73 | 17 | 0.0 | 0.0 | 0.00 | 0.17 | 0.17 | 99 | 1015.2 |
| 20260903230916 | 73 | 19 | 0.0 | 0.0 | 0.00 | 0.17 | 0.17 | 99 | 1015.3 |
| 20260903230412 | 73 | 17 | 0.0 | 0.0 | 0.00 | 0.17 | 0.17 | 99 | 1015.4 |
| 20260903225908 | 74 | 18 | 0.0 | 0.0 | 0.00 | 0.17 | 0.17 | 99 | 1015.1 |
| 20260903225404 | 74 | 20 | 0.0 | 0.0 | 0.00 | 0.17 | 0.17 | 99 | 1015.1 |
| 20260903224859 | 74 | 22 | 0.0 | 0.0 | 0.00 | 0.17 | 0.17 | 99 | 1015.0 |
| 20260903224350 | 75 | 18 | 0.0 | 1.0 | 0.00 | 0.17 | 0.17 | 99 | 1015.0 |
| 20260903223845 | 75 | 25 | 0.0 | 1.0 | 0.00 | 0.17 | 0.17 | 99 | 1014.8 |
| 20260903223344 | 76 | 19 | 0.0 | 0.0 | 0.00 | 0.17 | 0.17 | 98 | 1014.8 |
| 20260903222838 | 76 | 19 | 0.0 | 0.0 | 0.00 | 0.17 | 0.17 | 97 | 1014.8 |
| 20260903222332 | 76 | 17 | 0.0 | 0.0 | 0.00 | 0.17 | 0.17 | 97 | 1015.1 |
| 20260903221827 | 77 | 21 | 0.0 | 0.0 | 0.00 | 0.17 | 0.17 | 97 | 1014.7 |
| 20260903221326 | 77 | 21 | 0.0 | 0.0 | 0.00 | 0.17 | 0.17 | 97 | 1015.1 |
| 20260903220824 | 77 | 21 | 0.0 | 0.0 | 0.00 | 0.17 | 0.17 | 96 | 1014.8 |
| 20260903220318 | 77 | 17 | 0.0 | 0.0 | 0.00 | 0.17 | 0.17 | 96 | 1015.0 |
| 20260903215811 | 77 | 15 | 0.0 | 0.0 | 0.00 | 0.17 | 0.17 | 94 | 1015.0 |
| 20260903215308 | 77 | 19 | 0.0 | 0.0 | 0.00 | 0.17 | 0.17 | 94 | 1014.6 |
| 20260903214805 | 77 | 16 | 0.0 | 0.0 | 0.00 | 0.17 | 0.17 | 93 | 1015.0 |
| 20260903214256 | 77 | 17 | 0.0 | 0.0 | 0.00 | 0.17 | 0.17 | 92 | 1015.1 |
| 20260903213750 | 77 | 24 | 0.0 | 0.0 | 0.00 | 0.17 | 0.17 | 90 | 1014.7 |
| 20260903213246 | 77 | 31 | 1.0 | 1.0 | 0.00 | 0.17 | 0.17 | 91 | 1015.0 |
| 20260903212741 | 77 | 22 | 0.0 | 0.0 | 0.00 | 0.17 | 0.17 | 89 | 1015.2 |
| 20260903212238 | 77 | 331 | 1.0 | 1.0 | 0.00 | 0.17 | 0.17 | 90 | 1015.0 |
| 20260903211731 | 77 | 237 | 2.0 | 2.0 | 0.00 | 0.17 | 0.17 | 89 | 1015.0 |
| 20260903211228 | 78 | 68 | 1.0 | 1.0 | 0.00 | 0.17 | 0.17 | 89 | 1015.0 |
| 20260903210724 | 78 | 324 | 1.0 | 2.0 | 0.00 | 0.17 | 0.17 | 88 | 1014.8 |
| 20260903210219 | 78 | 232 | 2.0 | 2.0 | 0.00 | 0.17 | 0.17 | 88 | 1015.2 |
| 20260903205719 | 78 | 10 | 0.0 | 1.0 | 0.00 | 0.17 | 0.17 | 88 | 1015.0 |
| 20260903205218 | 78 | 200 | 2.0 | 2.0 | 0.00 | 0.17 | 0.17 | 87 | 1014.8 |
| 20260903204713 | 78 | 341 | 1.0 | 1.0 | 0.00 | 0.17 | 0.17 | 88 | 1015.2 |
| 20260903204210 | 78 | 250 | 1.0 | 2.0 | 0.00 | 0.17 | 0.17 | 87 | 1015.0 |
| 20260903203705 | 77 | 331 | 1.0 | 1.0 | 0.00 | 0.17 | 0.17 | 87 | 1015.1 |
| 20260903203200 | 77 | 8 | 1.0 | 1.0 | 0.00 | 0.17 | 0.17 | 89 | 1015.2 |
| 20260903202654 | 78 | 336 | 1.0 | 1.0 | 0.00 | 0.17 | 0.17 | 89 | 1015.1 |
| 20260903202150 | 78 | 13 | 1.0 | 1.0 | 0.00 | 0.17 | 0.17 | 87 | 1015.3 |
| 20260903201649 | 77 | 13 | 0.0 | 1.0 | 0.00 | 0.17 | 0.17 | 89 | 1015.3 |
| 20260903201144 | 78 | 25 | 0.0 | 0.0 | 0.00 | 0.17 | 0.17 | 90 | 1015.5 |
| 20260903200639 | 77 | 12 | 0.0 | 0.0 | 0.00 | 0.17 | 0.17 | 89 | 1015.5 |
| 20260903200134 | 77 | 57 | 1.0 | 1.0 | 0.00 | 0.17 | 0.17 | 88 | 1015.2 |
| 20260903195630 | 77 | 116 | 2.0 | 2.0 | 0.00 | 0.17 | 0.17 | 90 | 1015.3 |
| 20260903195126 | 76 | 21 | 0.0 | 0.0 | 0.00 | 0.17 | 0.17 | 93 | 1015.2 |
| 20260903194620 | 77 | 23 | 0.0 | 0.0 | 0.00 | 0.17 | 0.17 | 93 | 1015.1 |
| 20260903194120 | 77 | 15 | 1.0 | 1.0 | 0.00 | 0.17 | 0.17 | 90 | 1015.1 |
| 20260903193616 | 77 | 17 | 0.0 | 0.0 | 0.00 | 0.17 | 0.17 | 90 | 1015.2 |
| 20260903193112 | 77 | 59 | 1.0 | 1.0 | 0.00 | 0.17 | 0.17 | 88 | 1015.3 |
| 20260903192609 | 77 | 12 | 1.0 | 1.0 | 0.00 | 0.17 | 0.17 | 87 | 1015.4 |
| 20260903192109 | 78 | 359 | 1.0 | 1.0 | 0.00 | 0.17 | 0.17 | 88 | 1015.5 |
| 20260903191605 | 76 | 19 | 0.0 | 0.0 | 0.00 | 0.17 | 0.17 | 89 | 1015.8 |
| 20260903191105 | 76 | 3 | 0.0 | 0.0 | 0.00 | 0.17 | 0.17 | 91 | 1015.8 |
| 20260903190604 | 76 | 81 | 1.0 | 1.0 | 0.00 | 0.17 | 0.17 | 91 | 1015.8 |
| 20260903190059 | 75 | 8 | 1.0 | 1.0 | 0.00 | 0.17 | 0.17 | 91 | 1015.7 |
| 20260903185555 | 75 | 3 | 1.0 | 1.0 | 0.00 | 0.17 | 0.17 | 90 | 1015.9 |
| 20260903185050 | 76 | 85 | 1.0 | 1.0 | 0.00 | 0.17 | 0.17 | 90 | 1015.9 |
| 20260903184546 | 77 | 51 | 1.0 | 1.0 | 0.00 | 0.17 | 0.17 | 90 | 1016.1 |
| 20260903184041 | 77 | 5 | 0.0 | 0.0 | 0.00 | 0.17 | 0.17 | 90 | 1016.0 |
| 20260903183540 | 77 | 9 | 0.0 | 0.0 | 0.00 | 0.17 | 0.17 | 89 | 1016.0 |
| 20260903183035 | 77 | 10 | 0.0 | 0.0 | 0.00 | 0.17 | 0.17 | 88 | 1016.1 |
| 20260903182534 | 77 | 356 | 0.0 | 1.0 | 0.00 | 0.17 | 0.17 | 89 | 1016.0 |
| 20260903182031 | 77 | 20 | 0.0 | 0.0 | 0.00 | 0.17 | 0.17 | 88 | 1015.9 |
| 20260903181528 | 77 | 17 | 0.0 | 0.0 | 0.00 | 0.17 | 0.17 | 89 | 1016.1 |
| 20260903181023 | 76 | 10 | 2.0 | 2.0 | 0.00 | 0.17 | 0.17 | 88 | 1016.1 |
| 20260903180519 | 76 | 240 | 3.0 | 3.0 | 0.00 | 0.17 | 0.17 | 87 | 1016.0 |
| 20260903180018 | 77 | 204 | 2.0 | 2.0 | 0.00 | 0.17 | 0.17 | 87 | 1016.3 |
| 20260903175517 | 77 | 348 | 2.0 | 3.0 | 0.00 | 0.17 | 0.17 | 88 | 1016.0 |
| 20260903175016 | 77 | 212 | 2.0 | 2.0 | 0.00 | 0.17 | 0.17 | 88 | 1016.0 |
| 20260903174512 | 77 | 352 | 1.0 | 2.0 | 0.00 | 0.17 | 0.17 | 86 | 1016.1 |
| 20260903174011 | 77 | 21 | 1.0 | 2.0 | 0.00 | 0.17 | 0.17 | 88 | 1016.1 |
| 20260903173507 | 77 | 219 | 3.0 | 5.0 | 0.00 | 0.17 | 0.17 | 87 | 1016.2 |
| 20260903173003 | 77 | 222 | 2.0 | 2.0 | 0.00 | 0.17 | 0.17 | 88 | 1016.2 |
| 20260903172457 | 77 | 313 | 2.0 | 2.0 | 0.00 | 0.17 | 0.17 | 89 | 1016.1 |
| 20260903171953 | 78 | 206 | 2.0 | 3.0 | 0.00 | 0.17 | 0.17 | 87 | 1016.2 |
| 20260903171448 | 77 | 278 | 2.0 | 3.0 | 0.00 | 0.17 | 0.17 | 88 | 1016.6 |
| 20260903170943 | 76 | 198 | 2.0 | 2.0 | 0.00 | 0.17 | 0.17 | 89 | 1016.4 |
| 20260903170437 | 76 | 188 | 2.0 | 2.0 | 0.00 | 0.17 | 0.17 | 91 | 1016.2 |
| 20260903165936 | 75 | 276 | 1.0 | 2.0 | 0.00 | 0.17 | 0.17 | 90 | 1016.4 |
| 20260903165430 | 76 | 218 | 2.0 | 2.0 | 0.00 | 0.17 | 0.17 | 91 | 1016.5 |